Wind_Speed
37 38 38 39 40 40 37 36 37 38 39 43 49 53 52 50 51 53 55 56 54 53 52 51 49 47 45 45 44 43 43 43 43 43 42 41 40 40 40 39 38 37 37 36 34 32 32 31 31 31 31 30 30 31 32 33 34 35 35 35 36 36 35 34 31 27 26 27 28 27 26 26 26 26 26 27 27 27 27 27 27 26 26 26 27
33 33 35 37 37 36 34 33 36 39 41 42 44 48 50 48 47 47 49 49 49 49 50 49 48 47 47 46 45 44 44 45 45 44 44 43 42 41 40 39 38 38 37 36 36 35 35 35 34 33 33 32 32 33 34 35 36 35 35 35 36 36 36 35 32 29 26 27 28 28 26 25 26 26 26 26 27 27 27 28 27 27 27 28 29
32 30 32 35 36 36 35 35 37 38 36 37 39 42 46 49 49 47 44 42 42 43 45 46 46 46 46 46 45 45 45 46 46 45 45 44 43 42 40 40 39 39 38 38 38 37 36 36 35 34 33 33 33 34 35 36 37 36 35 35 35 36 36 36 34 31 28 28 29 29 27 26 26 26 26 27 27 27 27 28 28 29 30 31 32
34 30 30 34 37 39 39 38 38 36 34 36 37 38 40 44 47 46 42 40 39 40 42 44 45 45 45 45 44 43 45 46 46 45 45 44 43 42 41 40 40 40 40 40 39 38 37 36 36 35 34 33 35 36 36 37 37 36 35 35 35 35 36 36 35 33 30 29 30 30 28 26 26 27 27 27 27 27 27 27 28 29 31 32 33
39 34 33 34 38 41 41 40 38 36 36 36 35 35 37 38 40 42 40 38 37 39 42 43 43 44 45 44 43 44 45 46 46 45 45 44 43 42 42 42 42 42 42 41 39 38 38 38 37 36 34 34 36 37 37 37 37 35 35 35 34 35 36 37 36 34 32 31 31 31 29 28 28 28 28 29 29 28 28 28 29 30 32 33 33
44 42 40 38 39 42 42 41 39 36 35 34 32 33 35 35 37 38 37 37 37 39 42 42 42 43 44 43 43 44 45 45 44 44 44 44 43 42 43 43 43 43 42 41 40 39 38 37 36 35 35 35 37 38 39 38 37 35 35 35 35 36 37 38 37 36 34 34 33 33 32 30 30 30 30 30 30 30 30 31 32 34 35 36 36
47 48 46 43 41 43 44 42 40 38 36 34 32 33 32 31 34 35 35 37 40 42 42 41 40 41 41 40 40 41 41 41 41 41 41 41 41 41 42 43 43 43 42 40 39 37 36 35 36 37 37 37 38 39 39 38 36 35 35 36 37 37 38 39 38 36 35 35 35 35 34 33 32 32 33 33 33 33 33 34 36 38 39 39 40
46 49 50 48 45 45 46 44 43 43 41 39 38 36 32 31 33 35 36 39 42 44 44 42 40 39 39 39 39 40 39 39 40 41 41 41 40 40 41 41 41 41 40 39 38 37 37 37 39 40 39 38 39 40 40 38 36 36 37 38 39 39 39 39 38 37 36 36 37 37 36 35 35 35 36 36 36 36 37 39 40 41 43 44 44
45 45 47 49 48 47 47 44 44 45 46 45 44 40 36 36 37 38 40 40 41 44 45 43 42 40 40 41 42 41 41 42 43 43 44 43 43 43 43 42 42 40 39 39 39 39 40 40 40 40 39 38 38 39 40 39 38 38 40 41 41 40 39 39 38 38 37 37 38 38 38 38 38 38 39 39 40 40 41 43 44 45 46 47 48
49 46 44 44 46 48 48 46 44 45 45 45 44 41 39 40 41 41 41 41 42 44 44 44 43 41 42 44 44 43 43 44 45 45 45 45 45 46 45 44 44 43 42 41 41 41 41 40 40 39 38 38 38 40 42 42 41 42 43 44 43 41 40 40 40 40 40 39 39 40 40 40 40 41 42 43 43 44 45 46 47 48 49 50 51
53 52 49 46 44 45 46 47 46 46 45 44 44 42 42 43 43 42 42 43 44 44 44 44 43 40 41 43 44 45 46 46 46 46 46 46 46 46 45 44 44 44 43 42 42 42 41 40 40 39 39 39 40 42 44 44 45 46 46 46 45 43 43 42 42 42 42 42 41 41 42 42 43 44 45 46 47 47 48 48 50 51 52 53 54
53 54 54 52 49 47 46 46 46 46 45 45 46 46 45 44 43 42 42 44 44 43 43 45 43 41 41 43 45 47 48 47 47 48 47 47 47 47 46 45 45 44 43 43 42 42 41 41 42 42 43 44 44 45 46 47 48 48 48 47 46 46 45 45 45 45 45 44 43 43 43 44 45 47 48 49 49 50 51 51 52 53 54 55 56
50 52 53 53 53 51 50 49 49 48 47 46 47 49 49 48 45 42 42 44 44 44 44 44 44 43 43 45 46 47 47 47 48 49 49 49 50 49 48 47 47 46 45 44 44 44 44 44 45 46 47 48 48 48 48 49 50 50 49 48 48 47 47 48 48 48 48 46 45 45 46 47 48 49 50 51 52 52 53 54 54 55 56 57 58
46 48 50 51 52 51 50 50 50 52 51 50 49 50 52 52 50 46 45 47 47 47 48 47 46 45 45 47 48 47 47 47 49 50 50 50 51 51 50 49 49 48 48 48 47 47 47 47 47 48 50 50 49 49 49 50 50 50 49 49 49 49 49 50 50 50 49 48 48 48 48 49 51 52 53 53 54 55 55 56 57 58 59 60 61
43 45 46 48 49 49 48 47 48 50 52 52 51 51 53 55 54 50 48 48 48 49 50 50 50 49 48 48 49 48 48 49 51 51 51 51 52 52 51 50 50 50 51 51 50 49 48 48 49 49 50 50 50 50 51 50 50 50 50 50 50 50 51 52 52 52 51 51 51 51 51 52 53 54 55 56 57 58 58 58 59 60 61 63 64
42 44 45 47 48 48 48 47 47 49 52 53 52 50 50 53 54 52 50 48 48 49 50 50 51 51 50 50 50 49 50 51 52 53 54 53 53 53 53 52 52 52 53 53 52 51 50 49 49 50 50 51 51 51 51 51 50 51 51 51 51 52 52 53 53 53 53 53 53 53 54 55 56 57 58 59 59 60 61 62 63 63 64 65 66
42 43 45 46 48 48 49 49 49 50 52 53 53 50 47 48 50 51 51 49 48 50 50 50 51 50 50 51 51 50 51 52 53 54 54 54 54 54 54 54 53 54 54 53 53 53 53 52 52 52 53 53 52 52 51 51 51 51 52 52 53 53 53 54 54 55 55 55 56 56 57 58 59 60 61 61 62 63 64 65 66 66 66 67 68
44 44 45 46 47 48 50 51 52 52 53 55 55 52 49 46 45 47 49 50 50 50 50 50 51 51 50 52 53 52 53 54 54 54 54 54 55 55 55 55 56 56 55 55 55 55 55 55 55 56 56 55 54 53 53 52 53 53 54 54 54 54 54 55 55 56 57 58 58 58 59 60 62 62 64 65 65 66 67 68 68 69 68 68 70
47 46 46 47 47 48 50 52 54 54 54 55 57 56 52 48 44 43 45 48 50 52 53 53 53 52 52 54 55 55 54 53 53 54 54 55 56 56 57 57 57 58 58 58 58 58 58 59 59 59 59 58 57 56 55 55 55 55 55 55 56 56 56 57 57 58 59 59 60 61 62 64 64 65 66 67 68 69 70 71 71 70 70 71 73
49 49 49 48 48 49 50 52 54 56 57 58 58 57 55 52 48 44 44 46 49 51 54 56 56 54 54 56 57 56 55 53 53 54 55 56 57 57 58 59 60 60 61 62 62 62 62 63 63 62 61 60 59 59 58 57 57 57 57 57 58 58 59 59 60 60 61 62 63 65 66 67 68 68 69 70 71 72 73 73 72 72 73 76 78
51 51 51 50 50 50 51 53 54 57 59 61 60 58 57 55 52 47 43 44 49 52 54 56 55 53 51 51 53 54 53 53 53 54 55 55 57 58 59 60 61 63 64 66 66 66 66 66 64 63 62 61 60 60 59 59 59 58 58 59 60 61 61 62 62 63 64 66 68 69 70 71 71 72 72 73 74 75 75 74 75 76 78 79 80
53 52 53 53 52 52 52 54 55 57 60 63 64 62 60 59 58 55 50 47 49 52 56 56 53 49 48 48 49 51 50 49 49 51 52 53 55 57 59 59 61 63 65 66 65 66 67 66 65 64 63 62 62 62 61 60 60 60 61 61 63 63 64 65 66 68 70 71 72 72 73 74 74 75 76 77 77 78 78 78 79 80 81 81 82
55 55 54 54 55 55 54 55 56 58 60 63 66 67 65 63 64 64 62 58 56 56 58 57 54 51 51 52 53 53 52 51 51 52 54 55 56 58 60 61 62 64 66 67 67 68 68 67 67 66 66 65 65 64 63 63 63 64 64 65 66 67 68 70 71 73 74 75 75 75 75 76 77 78 79 80 80 81 81 82 83 84 84 85 86
56 57 57 56 57 57 57 57 58 59 61 63 65 68 69 69 69 69 69 68 66 64 63 61 59 57 57 58 58 57 55 54 55 55 57 58 59 60 61 62 63 63 65 67 68 69 69 69 69 69 69 68 68 68 68 69 69 70 71 71 72 73 74 74 75 76 76 76 76 76 77 78 79 81 82 83 84 84 85 85 86 87 87 88 89
57 58 59 59 59 59 60 60 60 60 62 63 65 66 68 70 72 72 73 74 73 72 71 69 67 66 67 67 66 64 62 61 61 62 62 63 63 63 64 65 65 64 65 67 69 70 71 70 70 70 70 70 71 71 72 73 73 73 73 73 73 73 73 73 74 75 76 76 77 78 80 81 83 84 85 85 86 86 87 88 89 90 90 91 92
58 60 61 61 61 61 61 62 62 63 63 64 65 66 67 69 70 71 73 74 75 75 76 75 73 71 72 74 73 72 72 71 70 70 70 69 68 68 68 67 67 69 71 72 72 72 71 70 68 67 66 67 68 69 70 71 71 71 72 72 72 72 73 74 75 77 78 80 81 82 84 85 86 86 87 87 87 87 88 90 92 93 94 95 96
60 62 63 64 63 63 63 63 64 65 66 66 67 67 68 68 69 69 70 72 73 74 74 76 74 72 72 75 76 76 76 77 77 76 76 75 74 73 73 72 73 74 75 74 73 73 73 71 71 70 69 69 70 71 72 73 73 74 75 76 76 77 77 78 80 81 82 83 85 85 86 87 88 88 89 89 89 91 92 93 95 96 97 98 99
63 64 65 66 66 65 65 65 65 66 67 69 70 70 70 70 70 70 70 70 72 72 72 73 74 73 73 75 76 77 77 78 79 79 79 78 78 77 77 77 78 78 77 75 75 76 76 76 76 76 76 76 76 77 78 79 79 80 81 81 81 81 81 82 83 84 85 85 86 86 87 88 89 90 91 92 93 95 96 97 98 99 100 101 102
65 67 68 68 67 67 68 67 67 67 68 70 72 73 73 73 73 72 72 72 73 74 74 74 75 75 75 76 78 78 79 79 79 80 80 79 79 79 80 80 79 79 79 79 80 80 81 82 82 81 81 81 81 82 83 83 83 84 84 84 84 84 85 84 85 85 85 85 86 87 88 89 91 93 95 96 98 99 100 101 101 102 103 104 106
65 68 70 70 69 69 70 70 70 69 70 71 73 75 75 76 75 75 75 75 76 77 78 78 78 78 79 80 81 82 82 82 82 81 81 80 80 81 81 81 81 82 83 83 84 84 85 85 85 85 85 85 84 85 85 85 85 86 86 86 86 86 86 86 86 86 87 87 88 89 90 92 95 97 99 100 101 102 103 103 104 105 107 108 110
65 68 70 72 71 71 72 72 72 72 72 72 74 76 77 77 78 78 78 78 79 80 81 82 82 83 83 84 85 86 86 86 86 85 84 83 83 83 83 82 83 84 85 86 86 86 87 87 87 87 87 86 85 85 85 86 87 87 88 88 88 88 88 88 88 89 89 90 91 93 95 97 99 101 103 104 104 104 105 106 107 109 110 112 113
66 68 70 72 73 73 73 74 73 73 73 73 74 76 77 79 80 81 81 81 81 82 83 84 85 86 88 89 90 91 91 91 90 88 87 87 87 86 86 85 85 86 86 86 87 87 87 87 87 87 87 87 87 87 87 88 88 89 90 90 90 90 91 91 91 92 93 94 96 97 99 101 103 105 106 106 106 107 108 110 111 112 113 114 115
66 67 69 71 72 73 73 74 74 74 73 73 74 75 77 79 81 82 83 84 84 84 84 86 87 88 90 91 92 93 94 93 93 92 91 91 91 91 89 88 88 88 88 88 88 88 88 88 89 89 89 89 89 90 90 90 91 91 92 92 92 93 93 94 95 96 97 98 99 100 102 104 106 108 109 110 110 111 112 113 114 115 116 117 117
67 68 69 71 72 73 74 74 75 75 74 73 73 74 76 78 81 82 84 85 86 86 86 86 87 89 91 92 92 93 93 94 93 93 92 92 93 92 91 90 90 90 90 90 90 90 90 91 91 91 91 92 92 92 93 93 93 93 93 94 95 96 96 97 97 98 99 101 102 104 106 108 110 111 112 113 114 114 115 116 117 117 118 118 119
65 67 68 70 72 73 74 75 75 75 75 74 73 73 74 76 79 81 84 86 87 88 88 88 88 89 91 93 93 94 93 94 94 94 94 94 93 93 93 92 92 92 92 92 92 91 92 92 93 93 94 94 94 94 94 94 94 94 95 95 96 97 98 99 100 102 103 105 107 108 110 112 114 115 115 116 117 117 118 118 119 119 119 120 121
63 64 65 67 69 70 73 74 75 75 75 75 74 74 74 75 77 80 83 85 87 89 90 91 91 90 91 93 95 97 97 96 96 95 95 96 96 96 96 95 94 94 94 94 94 93 94 94 95 96 97 97 97 97 96 96 96 97 97 99 100 101 103 104 106 107 108 109 110 112 113 115 117 118 118 119 119 120 120 120 120 120 121 122 123
63 64 64 65 66 67 68 70 72 73 74 74 75 75 75 75 76 78 80 83 86 88 90 92 93 93 93 93 95 97 99 101 101 100 99 98 98 98 99 99 99 98 98 98 98 98 98 98 99 99 100 101 101 101 101 101 102 103 104 105 106 107 108 109 110 111 112 113 114 116 118 119 120 121 121 121 121 121 120 121 121 122 123 124 124
63 64 65 66 67 67 68 69 70 71 72 73 74 75 75 75 76 77 79 81 84 87 89 91 93 94 95 95 96 97 98 100 101 103 104 104 103 103 102 102 102 103 103 103 104 104 104 104 104 104 105 105 105 105 106 106 107 107 108 109 110 111 112 113 114 115 116 117 119 120 121 122 122 122 122 122 121 121 122 122 123 123 123 123 122
60 62 63 64 66 67 69 70 71 72 72 73 74 74 75 76 76 76 77 79 81 83 86 89 91 94 95 97 98 99 99 99 100 101 102 104 106 107 107 107 107 106 106 106 106 107 107 108 108 109 109 110 110 110 111 111 112 112 113 114 114 115 116 117 118 119 120 121 122 123 123 123 122 122 122 122 122 123 123 123 122 122 121 120 119
55 57 58 60 62 64 66 68 70 72 74 75 76 76 77 77 78 78 78 78 79 80 82 84 88 91 94 96 98 99 100 101 101 100 101 101 103 105 107 108 109 110 110 110 110 110 110 110 111 112 113 113 114 115 115 116 117 117 117 118 119 119 120 121 122 122 123 123 123 123 123 123 123 123 123 123 123 122 121 120 119 118 118 118 117
51 52 54 55 57 59 62 64 67 69 72 74 76 78 79 80 80 81 81 81 80 81 81 82 83 86 88 92 95 98 100 102 102 103 102 102 103 103 104 106 107 109 110 111 112 113 113 114 114 115 116 116 117 117 118 119 119 119 120 120 121 121 122 123 123 123 123 123 123 123 123 123 122 122 122 121 120 119 118 118 117 117 117 115 113
47 48 50 52 54 56 58 61 63 66 68 71 73 76 78 80 81 83 84 84 84 84 83 83 84 84 85 87 89 92 96 99 101 103 104 104 104 105 105 105 105 106 107 108 109 111 112 113 114 115 116 117 118 118 119 120 120 121 121 121 122 122 122 122 123 123 123 123 122 122 121 121 120 119 119 118 117 117 117 117 116 114 112 110 108
43 44 46 48 50 52 54 57 60 62 65 68 71 73 75 78 80 82 83 85 85 86 86 86 86 87 87 87 88 89 90 92 95 98 100 102 104 105 106 106 106 106 107 107 108 108 109 110 111 112 113 114 115 116 117 117 118 119 119 120 120 120 120 121 121 120 120 120 119 119 118 118 118 117 117 117 117 117 116 114 112 110 108 107 105
42 42 43 45 47 49 51 53 55 57 60 63 66 69 72 74 77 79 81 82 84 85 86 87 87 88 89 90 90 91 91 91 92 93 95 97 99 101 103 104 106 107 107 108 108 108 109 109 110 110 111 112 112 113 114 115 115 116 116 117 117 118 118 118 118 118 118 118 118 117 117 117 117 117 116 116 115 113 111 110 108 106 105 102 99
42 42 42 42 44 46 48 49 51 53 55 57 60 63 67 70 73 75 78 79 81 82 83 85 86 87 89 90 92 93 93 93 94 95 95 96 96 97 98 100 101 103 104 106 107 108 109 110 110 111 111 112 113 113 114 114 115 115 116 116 117 117 117 117 118 118 117 117 117 117 117 116 116 115 114 112 111 109 108 107 104 102 98 95 91
41 41 41 41 42 43 45 47 48 49 51 52 54 57 60 63 66 69 72 75 77 79 81 82 83 85 86 88 90 92 93 94 94 96 97 97 98 98 99 99 99 100 101 102 103 105 106 108 109 110 111 112 113 113 114 115 115 116 116 116 116 117 117 117 117 117 117 116 116 115 115 114 112 111 110 108 107 106 104 101 98 94 91 88 84
37 39 39 40 40 41 42 44 45 47 48 49 51 52 54 56 59 62 65 68 71 74 77 79 81 82 84 85 87 89 90 92 93 94 96 97 98 99 99 100 100 101 101 102 102 103 104 105 107 108 109 110 111 112 112 113 114 114 115 115 115 115 116 116 116 115 115 114 113 112 111 110 109 108 107 105 103 100 97 94 90 86 83 79 76
34 35 36 37 38 39 41 42 43 44 46 47 48 50 51 53 54 56 58 61 64 67 70 73 75 77 79 81 83 85 87 88 90 91 93 94 96 97 98 99 100 101 102 102 103 103 104 105 106 107 108 108 109 110 111 111 112 112 112 113 113 113 113 113 113 112 112 111 110 109 108 107 105 103 101 99 96 93 90 86 82 79 75 72 70
33 33 33 34 35 36 38 40 41 42 44 45 46 48 49 50 52 53 55 56 58 60 63 65 68 71 73 75 77 80 82 84 86 87 88 90 92 93 95 96 98 99 100 101 102 103 104 104 105 106 107 107 108 108 109 109 110 110 110 111 111 111 111 110 110 109 108 107 106 104 102 100 98 96 94 91 88 85 82 78 75 72 69 67 65
33 33 33 33 34 34 35 36 38 40 42 43 44 45 47 48 50 51 52 54 55 57 58 60 62 64 66 68 70 73 75 78 80 82 83 85 86 88 90 91 93 94 96 97 99 100 101 102 103 104 105 105 106 106 107 107 108 108 108 108 108 108 107 106 105 104 103 101 99 97 95 93 91 88 86 83 81 77 74 72 69 67 65 63 62
33 33 34 34 34 34 34 35 35 37 38 40 42 43 45 46 47 49 50 51 53 54 56 57 59 60 61 62 64 66 68 71 73 75 77 78 80 82 83 85 87 88 90 91 93 94 95 97 98 99 100 101 101 102 103 103 103 103 103 103 102 101 100 99 98 97 95 93 91 89 88 86 84 81 78 76 74 71 69 67 65 63 62 61 60
Wind_Direction
222 226 222 221 225 229 231 235 236 232 226 227 232 235 237 240 243 244 246 248 251 256 259 261 261 261 260 261 261 262 262 263 263 264 266 268 270 273 275 277 279 279 279 279 277 276 276 278 280 283 286 286 285 285 285 286 288 289 292 294 295 294 295 297 298 296 294 295 297 300 303 304 304 302 301 300 299 297 296 295 295 296 299 304 307
221 228 226 225 227 227 228 234 236 234 231 231 235 237 236 238 242 246 249 252 255 257 257 258 259 259 260 260 260 261 262 262 264 265 267 269 271 274 275 276 277 277 277 277 276 275 276 277 279 281 283 284 284 284 284 285 287 289 291 292 292 293 294 295 296 293 290 291 293 296 300 303 303 301 300 300 299 298 296 295 294 293 296 301 303
214 222 225 226 225 223 225 230 234 236 236 236 239 241 239 240 243 248 252 256 258 257 256 255 255 256 258 259 260 261 261 262 264 266 268 270 272 273 275 275 275 276 275 276 275 276 276 277 278 280 282 283 283 283 283 284 286 288 289 289 290 292 293 294 293 290 287 287 289 292 296 300 301 300 299 299 300 300 299 297 295 294 295 297 299
207 211 217 222 225 225 225 227 230 233 233 233 237 241 242 242 243 245 249 253 255 255 254 254 254 255 255 257 258 259 260 261 263 265 268 269 271 272 273 274 274 274 275 275 275 275 275 276 277 279 281 283 283 283 284 284 285 286 287 288 289 291 291 291 290 287 284 284 286 288 291 296 299 300 300 300 300 300 299 299 298 296 294 295 297
210 207 210 217 223 224 223 224 226 228 230 231 235 240 243 243 242 243 245 248 250 252 252 253 253 254 254 255 256 257 259 261 263 265 267 268 269 270 271 272 273 273 274 273 273 273 274 275 277 280 282 283 282 283 283 283 283 285 286 288 289 288 288 288 287 284 281 282 284 285 288 293 297 300 301 301 300 299 298 298 297 297 296 297 298
215 211 210 215 221 222 220 221 221 222 227 230 234 241 245 247 249 249 248 248 250 252 253 254 253 253 254 255 256 257 258 261 263 264 266 267 268 269 269 270 270 271 271 272 272 273 274 275 278 281 283 283 282 282 282 282 282 284 286 288 287 285 284 285 284 282 280 281 283 284 285 290 295 298 299 299 299 299 297 295 296 300 301 300 298
216 214 212 215 220 221 221 221 219 219 222 225 228 236 242 247 252 252 249 250 252 251 251 253 252 251 252 253 253 255 257 259 262 263 266 268 269 269 269 269 269 270 270 271 272 273 274 276 279 282 284 283 282 281 281 280 281 284 286 286 284 282 282 282 282 280 279 281 282 282 283 287 292 295 296 297 298 298 296 295 297 302 303 301 300
217 218 217 217 220 223 224 224 224 224 226 227 228 232 235 239 244 244 242 247 251 251 250 250 249 250 251 251 253 255 257 260 262 264 267 269 270 270 270 270 270 270 271 272 272 273 275 278 281 283 283 281 280 279 279 279 281 283 284 284 283 282 281 281 281 279 279 280 281 280 281 284 288 291 294 295 296 297 297 297 299 302 303 301 302
217 220 222 223 224 226 227 228 229 231 232 234 236 236 234 234 237 238 240 243 248 250 251 250 250 251 252 252 256 258 259 261 264 266 268 269 270 270 272 273 273 273 273 274 274 276 278 279 281 281 281 279 278 279 280 280 281 282 283 284 284 282 281 280 279 278 279 281 279 278 279 281 285 290 293 294 294 295 297 298 300 302 302 302 303
219 221 224 226 228 229 230 231 231 232 234 236 238 237 233 232 234 237 240 243 244 248 252 254 254 253 252 254 256 256 258 261 265 266 268 269 269 271 272 273 275 276 276 276 277 278 279 279 279 279 279 278 278 280 281 281 282 283 285 285 284 283 282 280 280 280 282 281 279 277 278 281 285 289 292 293 293 295 297 299 300 301 302 302 303
223 224 225 227 228 228 228 229 229 230 232 236 237 234 231 232 234 237 241 244 246 249 251 254 256 254 253 254 255 255 258 261 264 265 266 267 268 270 271 273 274 276 277 278 278 278 278 276 275 275 276 278 279 280 281 281 282 284 286 285 284 283 283 282 282 283 283 281 279 278 279 282 285 288 291 292 293 295 297 298 299 300 301 302 302
226 227 228 229 230 229 227 225 226 228 230 233 234 233 230 230 233 237 242 245 248 250 251 252 255 255 254 255 255 257 260 262 263 264 265 266 267 268 269 271 272 274 276 277 276 276 275 274 272 272 273 276 277 278 279 280 282 284 285 284 282 283 284 284 284 284 283 281 279 279 280 282 285 288 291 292 292 294 296 297 298 299 300 301 301
230 230 231 233 234 234 233 230 230 230 230 232 233 233 231 231 231 235 241 245 246 247 250 253 255 255 254 255 256 258 260 261 262 263 265 265 266 267 268 269 271 273 274 275 275 275 275 274 272 271 272 274 276 277 278 279 281 282 282 281 281 282 283 284 284 283 282 281 280 280 281 283 286 289 291 291 292 293 295 296 297 298 299 300 299
235 233 233 234 235 237 237 236 235 233 232 233 234 234 234 233 232 233 238 244 246 246 249 253 256 255 255 255 256 258 259 259 260 262 264 265 267 267 268 269 271 272 273 275 276 276 276 275 273 272 272 274 275 276 277 278 280 280 279 279 280 281 281 282 282 282 282 281 281 282 283 285 287 289 290 291 292 293 294 295 296 298 298 299 299
238 237 234 233 234 234 235 235 234 233 232 232 234 234 235 236 235 234 237 243 247 249 250 253 256 258 257 257 258 259 259 259 261 263 265 266 267 268 269 270 272 273 274 276 277 277 277 276 275 273 273 274 276 277 278 279 279 278 278 278 279 279 280 281 281 281 281 281 282 283 284 285 287 289 290 291 292 293 294 295 296 297 298 298 299
239 238 237 234 232 232 231 230 229 228 228 229 230 231 234 236 237 237 238 241 246 249 250 252 256 258 259 259 259 260 261 263 264 266 267 268 269 270 272 273 274 274 275 275 276 277 277 276 275 274 275 276 278 278 278 278 278 277 277 277 277 278 279 279 279 280 280 281 282 283 284 286 287 289 289 290 291 292 293 295 296 297 298 299 300
237 238 238 236 234 231 229 227 226 226 226 226 227 227 229 233 236 237 237 240 244 249 251 252 254 256 258 260 262 262 264 265 266 267 268 269 270 271 273 274 274 274 274 274 274 275 275 275 275 275 277 279 280 279 279 278 277 276 275 275 275 276 277 277 278 278 280 281 282 283 284 285 287 288 289 290 291 292 294 295 296 297 298 299 299
236 237 237 237 235 233 230 227 225 224 225 225 225 224 224 228 233 237 239 240 244 248 250 251 253 254 257 260 262 263 265 266 267 267 268 268 269 270 271 272 272 272 272 272 272 272 273 274 275 276 279 280 280 279 278 276 275 274 274 274 274 275 276 276 276 277 279 280 282 283 284 285 287 287 288 289 291 292 294 295 296 297 297 298 299
238 237 237 237 237 235 233 229 226 224 224 225 225 224 223 225 231 237 240 242 245 249 252 253 253 254 256 259 260 263 265 266 266 266 266 267 268 269 270 271 271 271 271 271 271 271 272 274 276 278 279 280 279 278 277 276 275 275 274 275 275 274 275 275 276 277 279 280 281 282 283 284 285 286 287 289 291 292 293 294 295 295 297 298 299
241 239 237 236 237 237 235 232 229 225 224 225 226 225 224 225 231 239 244 247 248 249 252 255 255 255 257 259 261 262 264 263 262 263 265 266 267 268 269 269 269 269 270 270 271 271 273 274 276 278 279 278 278 277 276 275 275 275 275 274 274 274 274 275 275 277 278 279 280 281 283 284 285 286 288 289 290 291 292 293 294 296 297 298 299
244 242 240 237 236 236 236 235 232 228 227 227 227 226 224 224 230 237 241 245 249 249 249 252 255 256 257 259 261 262 262 261 261 263 266 267 268 268 269 269 269 269 270 271 272 273 274 276 277 277 277 277 276 275 275 275 275 275 275 274 274 274 274 275 275 276 277 278 280 282 284 285 286 287 288 289 290 291 293 294 295 295 297 299 302
247 246 243 241 238 236 236 236 235 232 230 230 231 230 226 224 228 233 234 232 237 243 245 246 250 253 253 253 256 258 259 258 258 261 264 266 269 270 271 271 271 271 272 272 273 273 275 277 277 277 276 275 274 274 274 274 274 274 273 273 273 273 274 274 275 276 278 280 282 283 284 285 286 287 288 289 291 293 293 294 295 298 301 304 307
248 248 247 244 242 239 237 235 235 235 233 232 234 234 231 228 229 234 238 235 234 238 242 242 243 246 248 248 251 254 255 254 253 254 258 262 265 268 270 271 271 271 271 271 271 272 274 276 276 276 276 275 275 275 274 273 273 273 273 273 274 274 274 275 276 278 280 281 282 283 284 285 286 287 289 291 293 294 296 298 301 304 307 308 309
249 248 247 246 244 242 239 236 235 235 235 235 236 237 237 235 234 235 239 242 242 243 245 245 243 242 243 244 246 249 250 250 249 250 253 256 260 263 266 267 269 270 271 271 271 272 273 274 274 274 275 275 275 274 274 274 274 274 274 274 274 274 275 276 277 278 280 281 282 284 286 287 289 291 293 295 297 298 301 303 305 306 307 307 307
249 248 247 246 244 243 242 239 236 235 235 235 236 238 239 240 240 240 240 243 245 247 248 248 247 245 244 244 244 245 246 247 247 248 250 252 255 257 260 263 265 266 267 269 271 273 274 275 275 275 276 276 276 276 277 277 278 278 278 278 278 279 279 280 281 282 284 286 287 289 290 292 294 295 297 298 300 301 302 303 304 305 305 305 305
248 248 247 246 245 243 242 241 239 237 235 234 236 238 239 240 242 243 244 245 246 248 249 249 249 249 248 248 248 248 248 249 250 251 252 253 254 255 257 259 261 262 264 266 269 272 274 275 276 277 278 278 278 279 280 281 281 282 282 283 283 284 284 284 285 286 288 289 290 291 292 293 295 297 298 299 300 300 301 302 302 303 303 304 304
248 248 247 246 245 244 243 242 241 240 238 236 235 236 238 240 241 242 244 245 246 247 248 249 249 248 247 248 250 251 251 252 253 254 255 256 256 256 256 257 258 260 263 265 268 269 271 272 273 273 274 275 276 277 278 279 280 280 281 282 283 284 284 285 286 286 288 289 290 291 292 294 296 297 298 299 299 299 300 301 301 302 302 303 303
249 248 247 246 245 245 244 243 242 241 240 239 237 236 237 239 239 240 241 242 243 243 243 244 246 246 244 243 246 250 251 253 254 255 256 256 257 257 257 257 258 260 261 262 263 265 267 268 269 270 271 273 274 275 276 277 278 279 281 282 283 284 284 285 285 286 287 289 290 291 292 294 295 296 297 297 298 299 299 300 300 301 301 302 302
251 250 248 247 246 246 246 245 243 242 241 240 239 238 238 238 239 239 239 239 239 240 240 239 240 242 241 240 241 245 248 250 252 253 254 255 255 256 256 257 258 259 259 260 261 262 264 266 268 269 271 272 273 275 276 277 279 280 281 283 284 285 285 286 286 287 288 289 289 290 291 292 293 294 295 296 297 298 298 299 299 300 301 301 302
252 251 250 249 248 248 247 246 245 243 242 241 241 240 239 239 239 239 239 239 238 238 239 239 238 239 240 239 240 242 246 248 250 251 252 253 254 255 255 256 257 258 259 260 262 263 265 267 268 269 271 272 273 275 276 277 279 280 281 282 283 284 285 286 286 286 286 287 287 288 289 290 291 293 294 295 296 297 297 298 298 299 300 300 301
252 251 251 250 250 249 249 248 247 245 243 242 241 241 241 240 240 240 240 240 239 239 239 239 239 239 240 240 241 242 245 248 250 251 252 252 253 254 255 256 257 258 259 261 262 264 265 267 268 269 271 272 273 274 275 277 278 278 279 280 281 282 283 283 283 284 284 285 286 286 288 289 290 292 294 294 295 296 296 297 298 298 299 300 301
251 251 251 251 250 250 250 250 249 248 246 244 242 242 241 241 240 240 240 240 240 240 240 240 241 241 241 242 243 244 246 249 251 251 252 252 253 253 255 256 257 258 259 260 261 263 264 266 267 269 270 271 272 273 274 275 276 276 277 278 279 279 280 281 281 282 282 284 285 286 287 288 290 291 293 294 294 295 295 296 297 298 299 300 301
251 250 250 250 251 250 250 250 250 249 248 246 244 242 241 241 240 240 240 240 240 241 241 242 242 243 243 244 245 246 247 249 250 251 252 253 253 254 255 255 256 257 258 259 260 261 263 264 265 267 268 269 270 271 273 274 274 275 275 276 277 277 278 279 280 281 282 284 285 286 287 288 289 291 292 293 293 294 295 295 296 297 299 300 301
253 252 251 250 250 251 251 251 251 251 250 248 246 243 242 241 240 240 240 240 240 240 241 241 242 242 243 245 245 246 247 248 249 250 251 252 253 254 254 254 255 256 257 258 259 261 262 263 264 265 266 268 269 270 272 273 273 274 274 275 276 276 278 279 280 281 282 284 284 285 286 287 289 290 291 292 292 293 294 295 296 297 298 300 301
258 257 255 254 252 252 252 252 252 252 251 250 247 245 243 241 240 240 240 239 239 239 240 240 240 241 241 243 244 245 246 246 247 248 249 250 251 252 253 254 254 255 256 258 259 260 261 262 263 264 266 267 268 269 270 271 272 272 273 274 275 276 277 278 279 281 281 282 283 284 285 287 288 289 290 291 292 293 294 295 296 297 298 299 300
261 260 260 259 257 256 255 254 253 253 252 251 250 247 245 243 242 241 240 240 240 239 239 240 240 240 240 241 242 243 244 245 245 246 247 248 249 250 251 252 253 254 255 256 257 258 260 261 262 264 265 266 267 268 269 269 270 271 272 273 274 275 276 277 278 279 280 281 282 283 284 286 287 288 289 290 291 292 294 295 296 297 298 299 300
261 260 260 260 259 259 258 258 257 256 255 254 253 251 249 247 245 243 242 241 241 240 240 240 240 241 241 241 241 241 242 243 244 245 246 247 248 249 250 251 252 253 254 255 256 257 259 260 261 262 264 265 265 266 267 268 269 270 271 272 273 274 275 276 277 278 279 280 281 282 284 285 286 287 289 290 291 293 294 295 296 297 298 299 299
261 260 259 259 258 258 258 258 258 258 257 256 255 255 254 252 250 247 244 243 242 242 241 241 241 241 242 242 242 242 243 243 244 245 245 246 247 248 249 251 252 253 254 255 256 257 258 259 260 261 262 263 264 265 266 267 268 269 270 271 272 273 274 275 276 277 278 279 281 282 283 285 286 287 289 290 291 293 294 295 296 296 297 298 298
261 261 260 259 258 258 257 257 257 257 257 257 256 256 255 255 254 252 250 248 246 244 243 243 242 242 242 243 243 244 244 245 245 246 246 247 247 248 249 250 251 252 253 254 255 256 257 258 259 260 262 263 264 265 266 267 268 269 270 271 272 273 274 275 276 277 278 279 281 282 283 285 286 288 289 290 291 292 293 294 295 295 296 297 298
262 261 260 260 259 258 257 256 256 256 256 255 255 255 255 255 255 255 254 252 251 249 248 246 245 244 244 244 244 245 245 246 246 247 247 248 248 249 250 250 251 252 253 254 255 256 257 258 259 260 261 262 263 265 266 267 268 269 270 271 272 273 274 275 276 277 279 280 281 283 284 285 287 288 289 290 291 292 293 293 294 295 296 297 298
264 263 261 260 259 258 258 257 256 255 255 254 254 254 254 254 254 254 254 254 253 253 252 251 250 249 248 247 246 246 246 247 247 248 248 249 249 250 251 252 252 253 254 255 256 257 258 259 260 261 262 263 264 265 266 267 268 269 270 271 272 273 274 276 277 278 279 281 282 283 285 286 287 288 289 290 291 291 292 293 294 295 296 298 299
264 263 262 261 260 259 258 258 257 256 255 254 254 254 253 253 253 253 253 253 253 253 253 253 253 253 253 251 250 250 249 249 249 249 250 250 251 251 252 253 254 255 255 256 257 258 259 260 261 262 263 264 265 266 267 268 269 270 271 272 273 274 275 276 278 279 280 281 282 284 285 286 287 288 289 289 290 291 292 293 295 296 297 299 300
268 266 264 263 261 260 259 259 258 257 256 255 254 254 253 253 253 253 253 253 253 253 253 253 253 253 254 254 254 254 253 253 253 253 252 252 253 253 253 254 255 255 256 257 258 259 260 261 262 263 264 265 266 266 267 268 269 270 272 273 274 275 276 277 278 279 280 281 283 284 285 286 286 288 289 290 291 292 293 294 296 297 298 299 300
273 271 268 266 265 263 262 261 260 259 258 257 255 254 254 253 253 253 253 253 253 253 253 253 253 253 253 254 254 254 255 255 255 255 255 255 255 255 255 256 256 256 257 258 259 260 261 261 262 263 264 265 266 267 268 269 270 271 272 273 274 275 276 277 278 279 280 281 282 284 285 286 287 288 289 290 291 293 294 296 297 298 299 299 299
276 274 271 269 267 265 264 263 262 261 260 259 258 256 255 254 254 254 254 254 254 254 254 254 253 253 253 253 253 254 254 254 255 255 256 256 257 257 257 257 257 258 258 259 259 260 261 262 263 263 264 265 266 267 268 269 270 271 272 273 274 275 276 277 278 279 281 282 283 284 285 286 287 288 289 291 292 294 295 296 297 298 298 298 298
277 275 274 271 269 267 266 265 264 263 261 260 259 258 257 256 255 255 255 255 255 255 255 255 255 255 254 254 254 254 254 254 254 254 255 256 256 257 257 258 258 259 259 259 260 261 261 262 263 264 264 265 266 267 268 269 270 271 272 273 274 275 276 277 278 280 281 282 283 284 285 286 288 289 291 292 294 295 295 296 296 297 297 297 297
278 277 275 274 272 269 268 266 265 264 263 262 261 260 259 258 257 256 256 255 255 255 256 256 256 256 256 256 255 256 256 255 255 255 255 256 256 257 257 258 258 259 259 260 260 261 262 262 263 264 265 266 266 267 268 269 270 271 272 273 274 275 276 277 278 279 280 282 283 285 286 288 289 291 292 293 294 294 295 295 296 296 296 296 297
283 280 278 276 274 272 270 269 267 266 265 264 263 262 261 260 259 258 257 257 256 256 256 256 256 256 256 256 256 257 257 257 257 257 257 257 257 258 258 258 259 259 260 260 261 261 262 262 263 264 265 266 266 267 268 269 270 271 272 273 274 275 276 277 279 280 282 283 285 286 287 289 290 291 292 293 293 294 294 295 295 295 296 296 296
291 288 284 281 278 275 273 272 270 269 267 266 265 264 263 262 261 261 260 259 259 258 257 257 257 256 257 257 257 257 257 258 258 258 258 258 259 259 259 260 260 261 261 262 262 262 263 264 264 265 266 266 267 268 269 270 271 272 273 274 275 276 278 279 280 282 283 284 285 287 288 289 290 291 292 292 293 293 294 294 295 295 296 296 296
300 297 294 290 286 281 278 275 273 271 270 269 268 266 266 265 264 263 262 261 261 260 260 259 258 258 257 257 257 257 258 258 259 259 259 259 260 260 260 260 261 261 262 262 263 263 264 265 265 266 267 267 268 269 270 271 272 273 274 275 276 278 279 280 281 282 283 285 286 287 288 289 290 291 291 292 292 293 294 294 295 295 295 296 296
305 302 300 297 294 290 286 282 278 276 274 272 271 270 269 267 267 266 265 264 263 262 262 261 261 261 260 259 259 259 259 259 259 259 260 260 260 261 261 261 261 262 262 263 263 264 264 265 266 266 267 268 269 270 271 271 273 274 275 276 277 278 279 281 282 283 284 285 286 288 289 289 290 290 291 292 292 293 293 294 294 294 295 295 295
Height
10604 10607 10612 10616 10618 10620 10623 10626 10628 10629 10628 10628 10628 10631 10637 10640 10642 10645 10647 10649 10652 10654 10656 10657 10659 10661 10662 10663 10664 10665 10666 10666 10666 10667 10668 10668 10668 10668 10669 10669 10668 10668 10668 10668 10668 10667 10667 10667 10667 10667 10667 10667 10668 10668 10668 10668 10668 10668 10667 10666 10664 10662 10661 10660 10660 10659 10657 10656 10654 10652 10651 10649 10648 10646 10645 10643 10642 10641 10640 10638 10638 10637 10636 10636 10635
10601 10605 10609 10612 10614 10615 10618 10620 10621 10621 10622 10624 10626 10629 10633 10636 10638 10640 10642 10645 10648 10649 10650 10652 10653 10654 10655 10656 10658 10659 10660 10660 10660 10661 10662 10663 10663 10663 10664 10664 10664 10664 10664 10663 10663 10663 10662 10662 10662 10663 10663 10663 10663 10663 10663 10663 10663 10663 10663 10662 10660 10658 10657 10656 10656 10655 10654 10652 10650 10648 10647 10646 10644 10643 10641 10640 10638 10637 10636 10635 10634 10633 10632 10632 10631
10597 10600 10603 10606 10608 10610 10613 10615 10615 10617 10619 10621 10622 10624 10627 10630 10632 10634 10637 10640 10642 10643 10644 10645 10646 10647 10648 10650 10651 10653 10653 10653 10654 10655 10656 10657 10658 10658 10659 10659 10659 10659 10659 10659 10658 10658 10657 10657 10657 10658 10658 10659 10658 10658 10658 10658 10659 10659 10659 10658 10657 10655 10653 10652 10651 10651 10650 10648 10646 10644 10643 10642 10640 10639 10637 10636 10635 10633 10632 10631 10630 10629 10628 10627 10626
10592 10595 10598 10600 10602 10604 10608 10609 10610 10612 10613 10614 10616 10619 10621 10623 10626 10629 10631 10633 10635 10637 10638 10639 10640 10641 10642 10643 10646 10647 10646 10646 10648 10649 10650 10651 10652 10653 10653 10653 10653 10653 10654 10654 10654 10653 10653 10652 10652 10653 10654 10654 10653 10653 10653 10654 10654 10654 10654 10653 10653 10651 10649 10647 10646 10646 10645 10644 10642 10641 10639 10638 10636 10635 10634 10632 10631 10630 10628 10627 10626 10625 10624 10623 10622
10587 10590 10592 10594 10596 10598 10602 10604 10606 10608 10608 10609 10612 10614 10616 10618 10621 10623 10625 10626 10629 10631 10631 10632 10634 10635 10636 10638 10640 10641 10640 10641 10642 10643 10644 10645 10646 10647 10647 10647 10647 10648 10649 10649 10649 10648 10648 10647 10647 10648 10650 10650 10649 10648 10648 10648 10649 10649 10649 10649 10648 10647 10645 10643 10641 10641 10640 10639 10638 10637 10635 10634 10632 10631 10630 10628 10627 10626 10624 10623 10622 10621 10619 10619 10618
10582 10585 10587 10589 10591 10593 10596 10598 10602 10604 10605 10607 10610 10610 10612 10614 10616 10618 10620 10622 10625 10626 10625 10626 10628 10629 10630 10632 10634 10635 10635 10636 10637 10637 10637 10638 10639 10640 10641 10641 10641 10642 10643 10643 10643 10643 10643 10642 10642 10643 10645 10645 10644 10643 10642 10642 10643 10643 10643 10644 10643 10642 10641 10639 10637 10636 10635 10634 10633 10632 10631 10629 10628 10627 10626 10624 10623 10622 10620 10619 10617 10616 10615 10614 10614
10578 10580 10582 10584 10586 10588 10591 10594 10598 10601 10601 10603 10604 10605 10608 10610 10611 10613 10615 10617 10619 10620 10620 10621 10622 10623 10625 10627 10629 10629 10630 10631 10631 10631 10632 10632 10634 10634 10635 10635 10636 10637 10637 10637 10637 10638 10638 10637 10637 10638 10639 10640 10638 10637 10636 10637 10637 10638 10638 10638 10638 10637 10636 10635 10633 10632 10631 10629 10628 10627 10626 10624 10623 10622 10621 10620 10619 10617 10616 10614 10613 10612 10610 10609 10608
10573 10575 10577 10579 10581 10584 10587 10591 10594 10596 10596 10597 10598 10601 10605 10607 10608 10609 10610 10611 10612 10613 10614 10616 10617 10618 10621 10622 10623 10624 10625 10625 10625 10625 10626 10627 10628 10629 10629 10630 10631 10631 10632 10632 10632 10632 10632 10632 10632 10632 10633 10634 10633 10632 10631 10631 10632 10632 10633 10632 10632 10631 10631 10630 10629 10627 10626 10625 10623 10622 10621 10620 10618 10617 10616 10615 10614 10613 10611 10609 10608 10607 10605 10603 10602
10568 10570 10573 10575 10578 10580 10584 10587 10590 10591 10592 10593 10594 10598 10602 10603 10604 10605 10605 10607 10607 10605 10607 10610 10612 10614 10616 10617 10617 10618 10619 10619 10619 10620 10621 10622 10622 10623 10624 10624 10625 10626 10626 10626 10627 10627 10627 10627 10626 10626 10627 10628 10628 10627 10625 10626 10626 10626 10626 10626 10626 10626 10625 10624 10623 10622 10621 10620 10619 10617 10616 10615 10614 10612 10611 10610 10609 10607 10606 10603 10602 10602 10600 10597 10595
10563 10566 10569 10571 10574 10577 10580 10583 10586 10587 10589 10590 10592 10595 10597 10598 10599 10600 10601 10602 10602 10600 10601 10603 10607 10610 10611 10611 10612 10612 10612 10613 10614 10615 10616 10616 10617 10617 10618 10619 10619 10620 10621 10621 10621 10622 10622 10622 10621 10621 10621 10622 10622 10622 10620 10620 10620 10620 10620 10620 10620 10620 10619 10618 10618 10617 10616 10615 10614 10613 10612 10611 10609 10607 10606 10605 10603 10601 10600 10598 10596 10595 10594 10590 10588
10559 10561 10564 10567 10570 10572 10575 10579 10581 10583 10586 10587 10589 10590 10592 10593 10595 10596 10596 10597 10597 10597 10597 10597 10600 10603 10605 10606 10606 10606 10607 10608 10608 10608 10610 10610 10611 10612 10613 10613 10613 10614 10615 10615 10616 10616 10616 10617 10616 10616 10616 10616 10617 10616 10615 10615 10614 10614 10613 10613 10613 10613 10612 10612 10612 10611 10610 10609 10608 10607 10607 10606 10604 10602 10601 10599 10597 10596 10594 10592 10590 10588 10586 10584 10580
10554 10557 10560 10563 10565 10568 10571 10574 10576 10579 10581 10583 10584 10586 10588 10590 10591 10591 10591 10591 10591 10593 10592 10591 10594 10597 10598 10599 10600 10600 10601 10602 10602 10602 10603 10604 10605 10606 10607 10607 10608 10608 10609 10610 10610 10611 10611 10612 10612 10611 10611 10611 10611 10611 10610 10609 10608 10608 10607 10606 10605 10605 10605 10605 10605 10605 10604 10603 10602 10602 10601 10600 10598 10597 10595 10593 10591 10590 10588 10586 10584 10582 10580 10578 10574
10550 10552 10555 10558 10560 10563 10566 10569 10572 10574 10576 10578 10579 10582 10584 10585 10586 10587 10587 10585 10586 10588 10587 10586 10588 10591 10592 10592 10593 10594 10596 10596 10595 10595 10596 10598 10598 10599 10600 10601 10602 10602 10603 10604 10604 10605 10605 10606 10606 10606 10606 10605 10605 10605 10605 10604 10603 10602 10601 10600 10599 10599 10599 10599 10598 10597 10597 10596 10596 10595 10594 10593 10591 10590 10588 10586 10585 10583 10581 10579 10578 10576 10573 10571 10568
10545 10548 10550 10553 10555 10557 10560 10563 10566 10568 10570 10572 10574 10577 10579 10580 10581 10582 10582 10580 10581 10582 10582 10581 10582 10584 10586 10586 10586 10588 10590 10589 10588 10589 10590 10591 10592 10593 10594 10595 10596 10596 10597 10597 10598 10599 10599 10600 10600 10600 10600 10600 10600 10599 10599 10598 10597 10596 10595 10594 10594 10593 10592 10592 10591 10590 10590 10589 10589 10588 10587 10586 10584 10583 10581 10579 10578 10576 10574 10573 10571 10569 10566 10563 10560
10540 10543 10545 10548 10549 10552 10554 10557 10559 10562 10564 10566 10568 10571 10574 10574 10575 10577 10577 10575 10575 10575 10576 10576 10576 10577 10579 10580 10580 10582 10583 10583 10582 10583 10584 10585 10585 10586 10587 10589 10590 10590 10590 10590 10591 10592 10593 10593 10593 10593 10593 10593 10593 10593 10592 10592 10591 10590 10589 10588 10588 10587 10586 10585 10584 10584 10583 10583 10582 10581 10580 10578 10576 10575 10573 10572 10570 10568 10567 10565 10563 10561 10558 10555 10552
10535 10537 10540 10542 10544 10546 10549 10551 10553 10556 10558 10560 10563 10565 10567 10568 10570 10572 10572 10571 10570 10569 10570 10571 10571 10571 10573 10573 10574 10576 10576 10576 10576 10576 10577 10578 10579 10579 10580 10582 10582 10583 10583 10583 10584 10584 10585 10586 10586 10587 10586 10586 10586 10586 10586 10585 10584 10583 10583 10582 10581 10580 10579 10578 10577 10577 10576 10576 10575 10574 10572 10570 10569 10567 10566 10564 10562 10560 10559 10557 10556 10553 10551 10549 10545
10530 10532 10534 10536 10538 10541 10543 10546 10548 10550 10553 10555 10557 10559 10562 10563 10565 10567 10566 10565 10564 10563 10564 10565 10565 10566 10567 10567 10567 10569 10569 10569 10569 10569 10569 10570 10571 10572 10572 10573 10574 10575 10575 10575 10576 10576 10577 10577 10578 10579 10579 10579 10579 10579 10579 10578 10577 10576 10576 10575 10574 10574 10573 10572 10571 10570 10569 10568 10567 10566 10564 10563 10561 10559 10558 10556 10554 10553 10551 10550 10548 10546 10544 10541 10538
10524 10526 10528 10530 10533 10535 10538 10540 10543 10545 10547 10549 10550 10552 10555 10558 10560 10561 10561 10560 10559 10557 10557 10559 10559 10561 10562 10562 10562 10563 10563 10563 10562 10562 10562 10562 10563 10564 10564 10565 10566 10566 10567 10567 10568 10568 10569 10569 10570 10571 10571 10571 10571 10571 10571 10570 10569 10568 10568 10568 10568 10567 10567 10566 10565 10564 10562 10561 10560 10559 10557 10555 10553 10551 10549 10548 10547 10545 10544 10542 10540 10537 10535 10533 10530
10517 10520 10522 10524 10527 10529 10532 10534 10537 10540 10541 10542 10543 10546 10549 10552 10554 10555 10555 10555 10554 10552 10551 10552 10554 10556 10557 10556 10556 10557 10558 10557 10556 10556 10556 10556 10555 10556 10556 10557 10557 10558 10558 10559 10559 10560 10561 10561 10562 10562 10563 10563 10563 10563 10562 10561 10561 10560 10560 10560 10560 10560 10560 10559 10558 10557 10555 10554 10553 10551 10550 10548 10547 10545 10543 10541 10540 10538 10536 10534 10532 10529 10527 10524 10522
10510 10513 10515 10518 10521 10523 10526 10528 10531 10534 10535 10536 10537 10540 10544 10546 10547 10548 10549 10549 10548 10547 10545 10544 10546 10549 10550 10550 10550 10551 10551 10551 10550 10549 10549 10549 10549 10549 10549 10549 10549 10550 10550 10549 10550 10551 10552 10553 10554 10555 10555 10555 10554 10554 10554 10553 10553 10553 10553 10553 10553 10552 10552 10552 10551 10550 10548 10547 10545 10543 10542 10541 10539 10538 10536 10534 10532 10530 10528 10525 10523 10520 10518 10516 10513
10502 10505 10508 10511 10514 10517 10519 10521 10524 10527 10529 10529 10530 10533 10537 10539 10541 10542 10542 10541 10540 10541 10540 10537 10537 10541 10544 10544 10543 10543 10543 10543 10543 10543 10542 10542 10542 10542 10542 10541 10541 10541 10540 10540 10541 10541 10542 10544 10546 10546 10546 10546 10546 10546 10546 10545 10545 10545 10545 10546 10545 10544 10544 10543 10543 10541 10540 10538 10537 10535 10534 10532 10531 10529 10527 10525 10523 10521 10518 10516 10514 10511 10509 10506 10502
10494 10497 10500 10503 10507 10509 10512 10514 10516 10519 10522 10522 10522 10525 10529 10531 10532 10533 10533 10532 10531 10532 10532 10531 10532 10534 10536 10537 10536 10535 10536 10537 10537 10536 10536 10535 10535 10534 10534 10533 10533 10532 10531 10531 10531 10531 10531 10534 10535 10536 10537 10537 10537 10537 10538 10538 10537 10537 10537 10537 10536 10536 10536 10535 10533 10532 10530 10529 10528 10527 10525 10524 10522 10520 10517 10515 10512 10510 10508 10506 10504 10501 10497 10493 10488
10487 10489 10492 10494 10498 10500 10503 10506 10508 10511 10513 10515 10515 10516 10520 10522 10523 10524 10524 10524 10524 10524 10524 10525 10526 10527 10528 10528 10528 10527 10528 10529 10530 10530 10530 10530 10528 10527 10526 10525 10524 10523 10522 10522 10523 10523 10523 10525 10525 10525 10527 10527 10527 10528 10529 10530 10529 10529 10529 10528 10528 10527 10526 10525 10523 10522 10521 10520 10519 10517 10516 10514 10511 10509 10506 10503 10501 10498 10496 10493 10489 10485 10481 10477 10474
10478 10480 10482 10485 10488 10491 10494 10497 10500 10502 10505 10507 10508 10508 10510 10513 10514 10515 10516 10517 10517 10518 10518 10518 10519 10519 10519 10519 10520 10520 10520 10521 10522 10522 10523 10523 10522 10521 10519 10518 10516 10515 10513 10511 10511 10513 10515 10517 10517 10517 10517 10518 10519 10519 10519 10520 10521 10520 10520 10519 10519 10518 10517 10516 10514 10513 10511 10510 10508 10506 10504 10501 10498 10496 10493 10490 10487 10484 10480 10476 10473 10470 10467 10465 10462
10468 10470 10472 10475 10478 10481 10484 10487 10490 10493 10495 10498 10500 10500 10501 10503 10504 10506 10508 10509 10510 10510 10511 10511 10511 10510 10510 10510 10511 10511 10511 10512 10512 10513 10514 10514 10515 10514 10513 10511 10509 10507 10504 10502 10501 10502 10504 10505 10506 10507 10507 10507 10508 10508 10507 10508 10508 10507 10507 10506 10505 10505 10504 10502 10501 10499 10498 10496 10494 10492 10489 10487 10484 10482 10479 10476 10473 10469 10466 10463 10461 10458 10456 10454 10451
10459 10460 10461 10464 10467 10471 10474 10477 10480 10483 10486 10489 10491 10492 10492 10493 10495 10496 10498 10500 10501 10502 10502 10502 10502 10501 10501 10501 10502 10502 10502 10502 10502 10503 10504 10505 10506 10506 10505 10504 10501 10499 10497 10495 10494 10494 10495 10495 10495 10496 10495 10495 10495 10495 10494 10493 10493 10492 10492 10491 10491 10490 10489 10488 10487 10485 10484 10482 10481 10479 10477 10474 10472 10469 10466 10463 10460 10458 10455 10453 10450 10448 10445 10442 10439
10449 10450 10451 10453 10457 10460 10464 10467 10470 10473 10476 10479 10481 10483 10483 10484 10486 10488 10489 10490 10491 10492 10492 10492 10493 10493 10492 10492 10493 10494 10494 10494 10494 10494 10495 10497 10498 10498 10497 10496 10493 10491 10490 10490 10489 10487 10487 10487 10488 10488 10487 10487 10486 10485 10484 10483 10483 10482 10481 10481 10480 10480 10479 10478 10476 10475 10473 10472 10470 10468 10465 10463 10460 10457 10454 10452 10450 10447 10445 10443 10440 10437 10434 10431 10428
10439 10440 10441 10443 10446 10450 10453 10457 10460 10463 10466 10468 10471 10473 10474 10475 10477 10479 10481 10481 10482 10482 10482 10482 10482 10484 10484 10483 10483 10484 10485 10485 10485 10486 10487 10488 10489 10489 10488 10487 10485 10484 10484 10485 10484 10481 10480 10479 10479 10479 10479 10478 10478 10477 10476 10475 10474 10473 10472 10471 10471 10470 10469 10468 10466 10465 10463 10461 10459 10456 10454 10451 10448 10446 10444 10442 10440 10437 10435 10432 10429 10426 10423 10420 10417
10429 10430 10431 10434 10437 10440 10442 10446 10449 10452 10455 10457 10460 10462 10464 10466 10467 10470 10472 10473 10473 10473 10473 10473 10473 10474 10474 10474 10474 10474 10476 10476 10476 10476 10477 10478 10479 10479 10479 10478 10477 10476 10475 10475 10474 10473 10472 10471 10471 10471 10470 10469 10468 10467 10466 10465 10464 10463 10462 10461 10459 10458 10457 10456 10455 10453 10451 10450 10447 10445 10443 10441 10439 10436 10434 10432 10430 10427 10424 10421 10418 10415 10412 10409 10406
10418 10419 10421 10423 10427 10429 10431 10434 10438 10441 10443 10446 10448 10451 10454 10456 10458 10460 10461 10462 10463 10463 10463 10464 10464 10464 10465 10466 10465 10465 10466 10467 10467 10467 10467 10468 10469 10469 10470 10469 10468 10466 10466 10465 10464 10464 10463 10462 10462 10462 10461 10460 10459 10458 10456 10455 10454 10453 10452 10451 10449 10448 10446 10445 10444 10442 10441 10439 10437 10435 10433 10431 10429 10427 10425 10422 10419 10416 10413 10410 10407 10404 10400 10397 10393
10408 10409 10410 10412 10415 10418 10419 10422 10425 10429 10432 10434 10436 10438 10442 10446 10448 10448 10449 10451 10452 10453 10454 10455 10456 10456 10457 10457 10457 10457 10457 10457 10457 10458 10459 10459 10459 10459 10459 10460 10459 10457 10457 10456 10456 10455 10454 10453 10452 10451 10451 10451 10450 10449 10448 10447 10445 10444 10443 10441 10440 10439 10437 10436 10434 10433 10431 10429 10427 10425 10423 10421 10419 10417 10414 10412 10409 10406 10403 10400 10396 10393 10389 10386 10382
10397 10398 10399 10400 10403 10406 10408 10410 10413 10416 10419 10422 10424 10426 10429 10433 10435 10437 10438 10440 10441 10442 10444 10445 10446 10447 10448 10448 10449 10449 10449 10449 10448 10449 10449 10449 10449 10449 10449 10450 10449 10448 10447 10447 10446 10445 10445 10444 10443 10442 10441 10441 10440 10439 10438 10437 10436 10435 10433 10432 10431 10429 10428 10427 10425 10423 10421 10419 10417 10415 10413 10411 10409 10406 10404 10401 10398 10395 10392 10389 10386 10382 10378 10375 10371
10386 10387 10388 10389 10391 10394 10396 10398 10400 10403 10407 10410 10412 10414 10416 10419 10421 10424 10426 10428 10429 10431 10432 10433 10435 10436 10437 10438 10439 10440 10440 10439 10439 10439 10439 10438 10438 10439 10440 10439 10439 10438 10437 10437 10437 10436 10435 10434 10433 10432 10432 10431 10430 10429 10428 10427 10426 10425 10424 10423 10421 10420 10418 10416 10414 10412 10411 10409 10407 10405 10403 10400 10398 10395 10393 10390 10387 10385 10382 10378 10375 10371 10367 10364 10360
10376 10376 10377 10379 10380 10382 10384 10387 10388 10391 10394 10397 10400 10402 10404 10406 10408 10410 10412 10415 10417 10419 10420 10421 10422 10423 10424 10426 10427 10429 10429 10429 10428 10428 10429 10428 10427 10428 10429 10429 10428 10427 10426 10426 10426 10426 10425 10424 10423 10422 10422 10421 10420 10419 10418 10417 10416 10415 10414 10412 10411 10409 10407 10406 10404 10402 10400 10398 10396 10394 10392 10389 10387 10384 10382 10379 10376 10374 10371 10367 10364 10360 10356 10353 10349
10366 10367 10367 10368 10370 10371 10372 10375 10377 10379 10381 10384 10386 10389 10392 10394 10395 10397 10399 10401 10404 10406 10407 10408 10410 10411 10412 10413 10415 10416 10417 10417 10417 10417 10417 10417 10417 10417 10417 10418 10418 10417 10416 10416 10416 10415 10415 10414 10413 10412 10411 10410 10409 10408 10408 10407 10406 10405 10403 10402 10400 10398 10397 10395 10393 10392 10390 10388 10386 10384 10381 10379 10376 10373 10371 10368 10365 10363 10360 10357 10354 10350 10346 10342 10337
10355 10356 10357 10358 10360 10361 10362 10363 10365 10367 10369 10371 10373 10376 10379 10381 10383 10385 10386 10388 10390 10392 10394 10396 10397 10399 10400 10401 10403 10403 10404 10405 10405 10405 10406 10406 10406 10406 10406 10407 10407 10407 10406 10406 10406 10405 10405 10404 10402 10401 10400 10399 10399 10398 10397 10397 10396 10394 10393 10391 10390 10388 10387 10385 10383 10381 10379 10377 10375 10373 10370 10368 10365 10362 10360 10357 10354 10352 10349 10346 10343 10339 10334 10330 10325
10343 10344 10346 10347 10348 10350 10351 10352 10353 10355 10357 10359 10361 10363 10366 10368 10370 10372 10374 10375 10377 10379 10381 10383 10385 10387 10389 10390 10391 10391 10392 10392 10393 10394 10394 10394 10395 10395 10395 10395 10396 10396 10396 10395 10395 10395 10394 10393 10392 10391 10390 10389 10388 10387 10387 10386 10385 10384 10383 10381 10380 10378 10376 10374 10372 10370 10368 10366 10364 10362 10359 10357 10354 10351 10349 10346 10343 10341 10338 10335 10331 10327 10323 10318 10314
10330 10332 10334 10335 10336 10338 10340 10341 10342 10343 10345 10347 10349 10350 10352 10354 10356 10359 10361 10363 10365 10366 10368 10370 10373 10375 10377 10378 10378 10379 10379 10380 10380 10381 10382 10383 10383 10383 10383 10383 10384 10384 10384 10384 10384 10383 10383 10382 10381 10380 10379 10378 10377 10376 10375 10375 10374 10373 10371 10370 10368 10367 10365 10363 10361 10359 10357 10355 10353 10351 10348 10346 10343 10340 10337 10335 10332 10329 10327 10324 10320 10316 10311 10306 10302
10319 10320 10322 10324 10325 10326 10327 10329 10330 10331 10333 10334 10336 10337 10339 10340 10342 10345 10347 10350 10352 10353 10355 10358 10360 10362 10363 10365 10365 10366 10367 10367 10368 10369 10371 10371 10371 10371 10371 10371 10371 10371 10371 10371 10372 10371 10371 10370 10369 10368 10367 10366 10365 10364 10364 10363 10362 10361 10359 10358 10357 10355 10353 10351 10349 10347 10345 10343 10341 10339 10337 10334 10331 10329 10326 10323 10320 10318 10315 10312 10309 10305 10300 10295 10290
10309 10310 10311 10313 10314 10314 10315 10316 10318 10319 10320 10321 10323 10324 10325 10327 10328 10331 10333 10336 10338 10340 10342 10345 10347 10349 10351 10352 10352 10352 10353 10355 10356 10357 10358 10359 10359 10359 10358 10358 10358 10358 10358 10359 10359 10359 10359 10358 10357 10356 10355 10354 10353 10352 10351 10350 10349 10348 10347 10346 10344 10342 10341 10339 10337 10335 10333 10331 10329 10326 10324 10322 10319 10317 10314 10311 10308 10305 10303 10300 10297 10293 10288 10283 10279
10300 10301 10302 10303 10303 10303 10304 10304 10305 10306 10307 10308 10309 10311 10312 10313 10315 10317 10319 10321 10324 10326 10328 10331 10333 10335 10337 10339 10340 10340 10340 10341 10342 10344 10345 10345 10346 10346 10346 10346 10346 10346 10346 10346 10346 10346 10346 10345 10344 10344 10343 10342 10341 10340 10339 10338 10337 10336 10334 10333 10331 10330 10328 10326 10324 10322 10320 10318 10316 10314 10312 10309 10307 10305 10302 10299 10296 10293 10290 10288 10284 10281 10276 10272 10267
10292 10292 10292 10293 10293 10293 10293 10293 10293 10294 10295 10296 10297 10298 10299 10300 10301 10303 10305 10307 10309 10312 10314 10316 10319 10321 10323 10325 10327 10327 10328 10328 10329 10331 10332 10332 10333 10334 10334 10334 10334 10334 10334 10334 10334 10334 10334 10333 10332 10332 10331 10330 10329 10328 10327 10325 10324 10323 10321 10320 10318 10316 10315 10313 10311 10309 10307 10305 10303 10301 10299 10297 10294 10292 10290 10287 10284 10281 10278 10275 10272 10269 10264 10259 10254
10284 10284 10284 10284 10283 10283 10283 10282 10282 10283 10283 10284 10284 10285 10286 10287 10288 10289 10291 10292 10295 10297 10300 10302 10304 10306 10308 10310 10312 10313 10315 10316 10317 10318 10319 10320 10321 10321 10322 10322 10322 10322 10322 10322 10322 10322 10321 10321 10320 10319 10318 10317 10316 10315 10314 10312 10311 10310 10308 10307 10305 10304 10302 10300 10298 10296 10294 10293 10291 10289 10287 10285 10282 10280 10277 10275 10272 10268 10265 10262 10260 10256 10252 10246 10242
10276 10275 10275 10275 10274 10273 10273 10272 10272 10272 10272 10273 10273 10273 10274 10275 10275 10276 10277 10279 10281 10283 10285 10288 10290 10292 10294 10296 10297 10298 10300 10302 10303 10303 10305 10306 10307 10308 10309 10310 10310 10310 10310 10310 10310 10309 10309 10308 10307 10307 10306 10305 10303 10302 10301 10300 10298 10297 10296 10294 10293 10291 10290 10288 10286 10284 10283 10281 10279 10277 10275 10272 10270 10267 10265 10262 10260 10256 10253 10249 10246 10243 10239 10234 10229
10268 10267 10267 10267 10266 10265 10263 10263 10263 10262 10262 10262 10262 10263 10263 10263 10264 10265 10265 10267 10268 10270 10271 10273 10276 10278 10280 10281 10282 10283 10285 10287 10288 10289 10290 10291 10292 10293 10294 10295 10296 10297 10298 10298 10297 10297 10296 10296 10295 10294 10293 10292 10291 10290 10288 10287 10286 10284 10283 10282 10280 10279 10277 10275 10274 10272 10270 10269 10267 10265 10262 10260 10257 10255 10253 10250 10247 10244 10241 10237 10234 10230 10226 10221 10217
10260 10259 10259 10259 10258 10257 10255 10254 10253 10253 10253 10253 10252 10252 10252 10253 10254 10254 10255 10255 10256 10257 10258 10260 10262 10263 10265 10267 10268 10269 10270 10273 10274 10275 10275 10276 10278 10279 10280 10280 10281 10282 10283 10283 10284 10283 10283 10283 10282 10281 10280 10279 10278 10276 10275 10274 10273 10272 10270 10269 10267 10266 10264 10262 10261 10259 10257 10256 10254 10252 10250 10248 10245 10243 10241 10238 10235 10232 10228 10225 10221 10218 10214 10209 10205
10253 10252 10251 10250 10250 10249 10247 10246 10245 10244 10244 10244 10243 10243 10242 10243 10243 10244 10244 10244 10245 10246 10246 10247 10248 10250 10251 10253 10254 10255 10256 10257 10260 10261 10262 10262 10263 10264 10265 10266 10267 10268 10268 10269 10269 10269 10269 10268 10268 10267 10266 10265 10264 10263 10262 10261 10260 10258 10257 10256 10255 10253 10251 10250 10248 10246 10245 10243 10242 10240 10238 10236 10233 10231 10228 10225 10222 10219 10216 10212 10209 10206 10203 10199 10195
10245 10244 10243 10242 10241 10240 10239 10238 10237 10236 10235 10235 10234 10234 10233 10233 10233 10233 10233 10234 10234 10234 10234 10235 10236 10237 10238 10240 10242 10242 10242 10243 10244 10247 10248 10249 10249 10250 10251 10252 10253 10253 10254 10254 10254 10255 10254 10254 10253 10253 10252 10251 10250 10249 10248 10247 10246 10245 10244 10243 10242 10240 10239 10237 10235 10234 10232 10231 10230 10228 10226 10224 10222 10219 10216 10213 10210 10206 10203 10200 10198 10195 10192 10189 10185
10239 10237 10236 10234 10234 10233 10232 10230 10229 10228 10227 10226 10226 10225 10224 10224 10223 10223 10223 10223 10223 10223 10223 10223 10224 10225 10226 10228 10229 10230 10230 10230 10230 10232 10234 10235 10236 10236 10237 10238 10239 10239 10239 10240 10240 10240 10240 10240 10239 10239 10238 10237 10237 10236 10235 10234 10233 10232 10231 10230 10228 10227 10226 10225 10223 10222 10220 10219 10217 10216 10214 10212 10210 10207 10204 10201 10198 10195 10192 10189 10187 10184 10181 10179 10176
10232 10230 10228 10227 10226 10225 10224 10223 10221 10220 10219 10218 10217 10216 10216 10215 10214 10214 10214 10214 10213 10213 10213 10212 10212 10213 10215 10216 10217 10218 10218 10217 10217 10218 10220 10222 10223 10223 10224 10224 10225 10225 10225 10226 10226 10226 10226 10226 10225 10225 10225 10224 10223 10223 10222 10221 10220 10219 10218 10217 10216 10215 10214 10213 10212 10210 10208 10207 10205 10204 10202 10200 10198 10195 10192 10189 10186 10184 10181 10179 10177 10174 10172 10169 10167
10226 10224 10222 10220 10218 10217 10216 10215 10214 10212 10211 10210 10209 10208 10207 10206 10205 10205 10205 10204 10204 10203 10202 10202 10202 10203 10204 10205 10206 10206 10206 10205 10206 10206 10207 10208 10209 10210 10210 10211 10211 10212 10212 10212 10212 10212 10212 10212 10212 10212 10211 10211 10210 10210 10209 10208 10208 10206 10205 10204 10203 10202 10202 10201 10199 10198 10196 10195 10193 10191 10190 10187 10185 10183 10181 10178 10176 10173 10171 10169 10167 10165 10163 10161 10159